Location: Six Mile Lake
(44.9000°N, 79.7170°W)
Time: 03:42:21
(UTC-04:00)

UKube-1 - Pass Details

Date: 03 July 2022
Orbit: 608 x 615 km, 98.4° (Epoch: 09 August)

Event Time Altitude Azimuth Distance (km) Brightness Sun altitude
Rises 00:51:04 0° 355° (N) 2,894 ? -21.7°
Reaches altitude 10° 00:54:19 10° 328° (NNW) 1,981 ? -21.8°
Maximum altitude 00:56:18 13° 300° (WNW) 1,777 ? -21.9°
Drops below altitude 10° 00:58:17 10° 273° (W) 1,972 ? -21.9°
Enters shadow 01:00:10 - 254° (WSW) 2,436 ? -21.9°
